This is the latest recevied weather packets stored in our database for station/object DB8NZ-11. If no packets are shown the sender has not sent any weather packets the latest 10 day(s).
| Time | Temp. | Humidity | Pressure | Rain* | Wind** | Luminosity | Snow |
|---|---|---|---|---|---|---|---|
| 1777682007 | 6.67° C | 68% | 1029.5 hPa | - | - | - | - |
| 1777681107 | 6.67° C | 68% | 1029.5 hPa | - | - | - | - |
| 1777680207 | 7.22° C | 67% | 1029.6 hPa | - | - | - | - |
| 1777679307 | 7.22° C | 66% | 1029.5 hPa | - | - | - | - |
| 1777678406 | 7.78° C | 65% | 1029.6 hPa | - | - | - | - |
| 1777677506 | 8.33° C | 64% | 1029.5 hPa | - | - | - | - |
| 1777676606 | 8.33° C | 63% | 1029.6 hPa | - | - | - | - |
| 1777675706 | 8.89° C | 63% | 1029.6 hPa | - | - | - | - |
| 1777674806 | 8.89° C | 64% | 1029.7 hPa | - | - | - | - |
| 1777673907 | 8.89° C | 61% | 1029.8 hPa | - | - | - | - |
| 1777673006 | 9.44° C | 60% | 1029.7 hPa | - | - | - | - |
| 1777672106 | 10° C | 58% | 1029.5 hPa | - | - | - | - |
| 1777671206 | 10.56° C | 58% | 1029.5 hPa | - | - | - | - |
| 1777670306 | 10.56° C | 58% | 1029.4 hPa | - | - | - | - |
| 1777669406 | 11.11° C | 57% | 1029.4 hPa | - | - | - | - |
| 1777668506 | 11.67° C | 56% | 1029.3 hPa | - | - | - | - |
| 1777667605 | 11.67° C | 53% | 1029.4 hPa | - | - | - | - |
| 1777666705 | 12.22° C | 52% | 1029.4 hPa | - | - | - | - |
| 1777665805 | 13.33° C | 51% | 1029.3 hPa | - | - | - | - |
| 1777664905 | 13.89° C | 49% | 1029.2 hPa | - | - | - | - |
| 1777664005 | 14.44° C | 47% | 1029.1 hPa | - | - | - | - |
| 1777663105 | 15.56° C | 45% | 1029.1 hPa | - | - | - | - |
| 1777662204 | 16.67° C | 42% | 1029 hPa | - | - | - | - |
| 1777661304 | 17.78° C | 42% | 1028.9 hPa | - | - | - | - |
| 1777660403 | 18.89° C | 37% | 1028.9 hPa | - | - | - | - |
* Rain since midnight (hover to see other rain measurements)
** Current wind speed in m/s (hover to see current wind gust speed)